Location: High Meadows Obseravatory
(40.7417°N, 111.5713°W)
Time: 00:27:05
(UTC-06:00)

X-37B - Visible Passes

Search period start: 26 October 2021 00:00
Search period end: 05 November 2021 00:00
Orbit: 445 x 447 km, 45.0° (Epoch: 24 October)

Date Brightness Start Highest point End Pass type
(mag) Time Alt. Az. Time Alt. Az. Time Alt. Az.
26 Oct 1.9 19:56:16 10° WNW 19:59:38 42° SSW 20:01:15 25° SSE visible
27 Oct 1.5 19:16:39 10° WNW 19:20:06 53° SSW 19:23:34 10° SE visible
28 Oct 3.8 20:16:26 10° WSW 20:18:02 13° SW 20:19:37 10° SSW visible
29 Oct 3.7 19:36:19 10° W 19:38:35 16° SW 19:40:51 10° S visible
30 Oct 3.5 18:56:26 10° W 18:59:08 21° SW 19:01:49 10° SSE visible
